Location: *
(47.2969°N, 10.2930°E)
Time: 00:37:50
(UTC+00:00)

Cosmos 2082 Rocket - Pass Details

Date: 09 April 2020
Orbit: 832 x 855 km, 71.0° (Epoch: 04 June)

Event Time Altitude Azimuth Distance (km) Brightness Sun altitude
Exits shadow 22:15:06 50° 323° (NW) 1,061 2.9 -32.8°
Drops below altitude 10° 22:20:06 10° 20° (NNE) 2,472 5.2 -33.1°
Sets 22:22:39 0° 25° (NNE) 3,415 6.0 -33.2°
